Location: 22
(39.7117°N, 89.5929°W)
Time: 17:23:04
(UTC-05:00)

Tiros 1 despin weight - Pass Details

Date: 16 August 2024
Orbit: 573 x 617 km, 48.2° (Epoch: 17 September)

Event Time Altitude Azimuth Distance (km) Brightness Sun altitude
Rises 22:16:51 0° 293° (WNW) 2,782 ? -24.5°
Reaches altitude 10° 22:19:22 10° 281° (W) 1,877 ? -24.9°
Enters shadow 22:22:23 26° 238° (WSW) 1,147 ? -25.3°
